Weather History for Detroit, MI

Change the Weather History Date:

Wednesday, January 15, 2014

  Actual Average Record
Temperature  
Mean Temperature 28 °F -  
Max Temperature 33 °F 28 °F 57 °F (1953)
Min Temperature 23 °F 16 °F -6 °F (1972)
Degree Days  
Heating Degree Days 37    
Moisture  
Dew Point 15 °F    
Average Humidity 60    
Maximum Humidity 74    
Minimum Humidity 49    
Precipitation  
Precipitation 0.00 in - - ()
Sea Level Pressure  
Sea Level Pressure 29.91 in    
Wind  
Wind Speed 14 mph (West)    
Max Wind Speed 24 mph    
Max Gust Speed 38 mph    
Visibility 10 miles    
Events Snow    
Averages and records for this station are not official NWS values.
T = Trace of Precipitation, MM = Missing Value Source: NWS Daily Summary

Daily Weather History Graph

Daily Weather History Graph

Search for Another Location

Airport:

Trip Planner

Search our weather history database for the weather conditions in past years. The results will help you decide how hot, cold, wet, or windy it might be!

Date:

Astronomy

Jan. 15, 2014 Rise Set
Actual Time 7:58 AM EST 5:24 PM EST
Civil Twilight 7:27 AM EST 5:55 PM EST
Nautical Twilight 6:52 AM EST 6:30 PM EST
Astronomical Twilight 6:19 AM EST 7:04 PM EST
Moon 5:22 PM EST (1/15) 7:13 AM EST (1/15)
Length of Visible Light 10h 28m
Length of Day
9h 25m
Full, 100% of the Moon is Illuminated
Jan 15
Full
Jan 15
Full
Jan 24
Last Quarter
Jan 30
New
Feb 6
First Quarter

Hourly Weather History & Observations

Time (EST) Temp. Windchill Dew Point Humidity Pressure Visibility Wind Dir Wind Speed Gust Speed Precip Events Conditions
12:53 AM 33.1 °F 23.4 °F 18.0 °F 54% 29.74 in 10.0 mi WSW 13.8 mph 21.9 mph N/A   Overcast
1:53 AM 30.9 °F 17.8 °F 15.1 °F 52% 29.74 in 10.0 mi West 23.0 mph 38.0 mph N/A   Overcast
2:53 AM 28.9 °F 16.9 °F 12.9 °F 51% 29.76 in 10.0 mi WSW 17.3 mph 27.6 mph N/A   Clear
3:53 AM 28.0 °F 16.5 °F 14.0 °F 56% 29.77 in 10.0 mi WSW 15.0 mph 26.5 mph N/A   Mostly Cloudy
4:53 AM 28.0 °F 16.1 °F 15.1 °F 58% 29.77 in 10.0 mi WSW 16.1 mph 29.9 mph N/A   Overcast
5:53 AM 28.0 °F 13.6 °F 16.0 °F 61% 29.78 in 10.0 mi SW 24.2 mph 33.4 mph N/A   Overcast
6:04 AM 28.4 °F 14.1 °F 15.8 °F 59% 29.76 in 10.0 mi SW 24.2 mph 32.2 mph N/A   Overcast
6:53 AM 28.0 °F 14.3 °F 17.1 °F 63% 29.80 in 10.0 mi WSW 21.9 mph 28.8 mph N/A   Overcast
7:53 AM 28.0 °F 17.0 °F 17.1 °F 63% 29.83 in 10.0 mi WSW 13.8 mph 25.3 mph N/A   Overcast
8:53 AM 28.0 °F 16.1 °F 17.1 °F 63% 29.87 in 10.0 mi WSW 16.1 mph 26.5 mph N/A   Overcast
9:53 AM 28.9 °F 20.4 °F 18.0 °F 64% 29.91 in 10.0 mi West 9.2 mph - N/A   Overcast
10:53 AM 28.9 °F 19.2 °F 16.0 °F 58% 29.94 in 10.0 mi West 11.5 mph 21.9 mph 0.00 in   Overcast
11:21 AM 28.4 °F 17.0 °F 15.8 °F 59% 29.92 in 10.0 mi West 15.0 mph 21.9 mph N/A   Overcast
11:53 AM 28.0 °F 18.1 °F 15.1 °F 58% 29.95 in 10.0 mi West 11.5 mph - N/A   Overcast
12:09 PM 28.4 °F 17.5 °F 15.8 °F 59% 29.92 in 9.0 mi West 13.8 mph 19.6 mph 0.00 in   Overcast
12:53 PM 30.0 °F 20.5 °F 15.1 °F 54% 29.94 in 10.0 mi West 11.5 mph - 0.00 in   Overcast
1:53 PM 30.0 °F 20.5 °F 12.9 °F 49% 29.94 in 10.0 mi West 11.5 mph - N/A   Overcast
2:53 PM 30.0 °F 20.5 °F 12.9 °F 49% 29.95 in 10.0 mi West 11.5 mph 18.4 mph N/A   Overcast
3:53 PM 28.9 °F 19.2 °F 14.0 °F 54% 29.96 in 10.0 mi West 11.5 mph 17.3 mph N/A   Overcast
4:53 PM 28.9 °F 19.8 °F 12.9 °F 51% 29.99 in 10.0 mi West 10.4 mph - N/A   Overcast
5:53 PM 28.9 °F 21.9 °F 15.1 °F 56% 29.99 in 10.0 mi West 6.9 mph - N/A   Overcast
6:21 PM 28.4 °F 21.2 °F 17.6 °F 64% 29.99 in 5.0 mi West 6.9 mph - 0.00 in Snow Light Snow
6:31 PM 26.6 °F 20.0 °F 19.4 °F 74% 29.99 in 2.5 mi West 5.8 mph - 0.00 in Snow Light Snow
6:38 PM 26.6 °F 16.8 °F 17.6 °F 69% 29.98 in 7.0 mi WNW 10.4 mph 17.3 mph 0.00 in Snow Light Snow
6:53 PM 27.0 °F 18.0 °F 16.0 °F 63% 30.01 in 10.0 mi West 9.2 mph - 0.00 in   Overcast
7:53 PM 27.0 °F 18.7 °F 17.1 °F 66% 30.01 in 10.0 mi WSW 8.1 mph - N/A   Overcast
8:17 PM 26.6 °F 17.5 °F 15.8 °F 64% 29.98 in 10.0 mi West 9.2 mph - N/A   Overcast
8:35 PM 26.6 °F 18.2 °F 14.0 °F 59% 29.99 in 10.0 mi WNW 8.1 mph - N/A   Overcast
8:53 PM 26.1 °F 15.0 °F 12.9 °F 58% 30.02 in 10.0 mi West 12.7 mph 17.3 mph N/A   Overcast
9:53 PM 24.1 °F 16.0 °F 12.0 °F 60% 30.01 in 10.0 mi West 6.9 mph - N/A   Mostly Cloudy
10:53 PM 23.0 °F 15.8 °F 14.0 °F 68% 30.01 in 10.0 mi WSW 5.8 mph - N/A   Scattered Clouds
11:30 PM 24.8 °F 14.6 °F 15.8 °F 69% 29.98 in 10.0 mi WSW 10.4 mph - N/A   Mostly Cloudy
11:53 PM 24.1 °F 13.7 °F 15.1 °F 69% 29.99 in 10.0 mi WSW 10.4 mph - N/A   Overcast